Location: Newark
(42.7133°N, 87.7910°W)
Time: 15:33:29
(UTC+00:00)

Transit 4A - Visible Passes

Search period start: 18 September 2019 00:00
Search period end: 28 September 2019 00:00
Orbit: 865 x 980 km, 66.8° (Epoch: 17 September)

Date Brightness Start Highest point End Pass type
(mag) Time Alt. Az. Time Alt. Az. Time Alt. Az.
18 Sep 9.0 01:29:16 10° NNW 01:34:27 27° NE 01:36:21 23° ENE visible
18 Sep 8.6 03:15:15 10° NW 03:19:52 48° WNW 03:19:52 48° WNW visible
19 Sep 8.5 01:38:24 10° NNW 01:44:04 37° NE 01:45:34 32° E visible
19 Sep 9.1 03:24:49 10° NW 03:29:05 36° W 03:29:05 36° W visible
20 Sep 8.1 01:47:36 10° NNW 01:53:35 52° NE 01:54:50 44° E visible
20 Sep 9.6 03:34:36 10° NW 03:38:22 25° W 03:38:22 25° W visible
21 Sep 7.7 01:56:53 10° NNW 02:03:00 74° ENE 02:04:10 57° ESE visible
21 Sep 10.0 03:44:43 10° WNW 03:47:42 17° W 03:47:42 17° W visible
22 Sep 9.2 00:20:31 10° N 00:25:17 23° NE 00:29:55 10° E visible
22 Sep 7.8 02:06:14 10° NNW 02:12:20 78° WSW 02:13:34 57° S visible
22 Sep 10.4 03:55:59 10° W 03:57:06 11° W 03:57:06 11° W visible
23 Sep 8.8 00:29:35 10° NNW 00:34:57 30° NE 00:39:30 13° ESE visible
23 Sep 8.4 02:15:44 10° NW 02:21:35 53° WSW 02:23:02 43° SSW visible
24 Sep 8.4 00:38:45 10° NNW 00:44:31 41° NE 00:49:04 15° ESE visible
24 Sep 9.1 02:25:21 10° NW 02:30:46 35° WSW 02:32:36 29° SW visible
25 Sep 7.9 00:47:59 10° NNW 00:54:00 59° NE 00:58:44 16° SE visible
25 Sep 9.7 02:35:14 10° NW 02:39:52 23° WSW 02:42:17 18° SW visible
26 Sep 7.8 00:57:16 10° NNW 01:03:24 84° ENE 01:08:32 14° SSE visible
26 Sep 10.2 02:45:36 10° WNW 02:48:52 15° WSW 02:52:05 10° SW visible
27 Sep 8.1 01:06:41 10° NW 01:12:42 68° WSW 01:18:29 10° SSE visible
